Location: Unspecified
(0.0000°N, 0.0000°E)
Time: 08:53:20
(UTC+00:00)

BREEZE-M R/B - Visible Passes

Search period start: 30 May 2024 00:00
Search period end: 09 June 2024 00:00
Orbit: 2946 x 63333 km, 30.7° (Epoch: 27 May)

Date Brightness Start Highest point End Pass type
(mag) Time Alt. Az. Time Alt. Az. Time Alt. Az.
30 May ? 20:17:02 20° ESE 02:07:54 56° S 08:56:44 10° WSW daylight
31 May ? 20:16:04 10° ESE 02:58:51 57° S 11:09:08 10° NE visible
01 Jun ? 21:03:58 10° ESE 04:22:29 59° S 08:44:08 10° NE visible
02 Jun ? 21:49:14 10° ESE 05:05:43 62° SE 06:15:31 10° ENE visible
03 Jun ? 22:49:35 10° ESE 02:10:49 29° ESE 03:32:05 10° E visible
06 Jun ? 00:51:22 10° W 02:08:19 23° WSW 03:29:33 19° WSW visible
06 Jun ? 22:00:18 10° W 23:18:31 55° SW 05:58:35 10° WSW visible
07 Jun ? 19:30:06 10° WNW 20:01:10 84° SW 06:45:25 10° WSW visible
